Regional Weather Roundup
Issued by NWS Albany, NY

Home | Current Version | Previous Version | Text Only | Print | Product List | Glossary On
Versions: 1 2 3 4 5 6 7 8 9 10 11 12 13 14 15 16 17 18 19 20 21 22 23 24 25 26 27 28 29 30 31 32 33 34 35 36 37 38 39 40 41 42 43 44 45 46 47 48 49 50
000
ASUS41 KALY 300210
RWRALY

NEW YORK STATE HOURLY WEATHER ROUNDUP
NATIONAL WEATHER SERVICE ALBANY NY
1000 PM EDT FRI APR 29 2016

NOTE: "FAIR" INDICATES FEW OR NO CLOUDS BELOW 12,000 FEET WITH NO
SIGNIFICANT WEATHER AND/OR NO OBSTRUCTIONS TO VISIBILITY.

NYZ032-033-038>043-046>054-057>066-NYZ062>081-082-084-300300-
EAST


CITY           SKY/WX    TMP DP  RH WIND       PRES   REMARKS
ALBANY         CLOUDY    53  39  59 W7        30.11R
GLENS FALLS    CLOUDY    54  31  41 E12       30.10R
POUGHKEEPSIE   RAIN      49  42  77 CALM      30.15R
NEWBURGH       LGT RAIN  46  41  81 CALM      30.16R FOG
MONTGOMERY     LGT RAIN  45  41  86 CALM      30.16R
WHITE PLAINS   LGT RAIN  46  40  79 NE6       30.15R
ISLIP          CLOUDY    47  37  68 NE3       30.15R
NEW YORK CITY  CLOUDY    50  38  63 SE3       30.15R
CENTRAL PARK   CLOUDY    49  36  61 E6        30.17R
$$

NYZ005>009-017-018-044>046-055-056-300300-
CENTRAL


CITY           SKY/WX    TMP DP  RH WIND       PRES   REMARKS
FULTON         CLOUDY    50  44  80 CALM      30.13R
SYRACUSE       CLOUDY    49  44  83 CALM      30.12R
ROME           CLOUDY    48  43  82 CALM      30.13R
ELMIRA         LGT RAIN  44  41  89 CALM      30.13R
BINGHAMTON     CLOUDY    39  38  96 SE7       30.11R WCI  34
MONTICELLO     PTCLDY    39  37  93 SE3       30.14S
$$

NYZ026>034-041>043-087-300300-
NORTH


CITY           SKY/WX    TMP DP  RH WIND       PRES   REMARKS
WATERTOWN      CLOUDY    47  26  44 NE6       30.14R
FORT DRUM      NOT AVBL
MASSENA        PTCLDY    40  26  57 CALM      30.17R
SARANAC LAKE   PTCLDY    40  20  44 N3        30.10R
PLATTSBURGH    PTCLDY    45  16  31 NW8       30.14R
$$

NYZ001>004-010>016-019>021-085-300300-
WEST


CITY           SKY/WX    TMP DP  RH WIND       PRES   REMARKS
NIAGARA FALLS  CLOUDY    46  33  60 N5        30.14R
BUFFALO        MOCLDY    47  31  53 NE6       30.14S
DUNKIRK        MOCLDY    44  39  82 CALM      30.13R
JAMESTOWN      CLOUDY    41  37  87 N5        30.10R
WELLSVILLE     CLOUDY    42  41  96 E3        30.10S FOG
ROCHESTER      CLOUDY    47  39  74 CALM      30.16R
PENN YAN       CLOUDY    46  44  93 CALM      30.14R FOG
$$

             KEY
       WCI = WIND CHILL INDEX
       VSB = VISIBILITY
       HX  = HEAT INDEX
$$



USA.gov is the U.S. government's official web portal to all federal, state and local government web resources and services.